Voltar ao catálogo

COSMOS 2199

AtivoMilitarPO
NORAD 22036·PAYLOAD·🇷🇺 Russia

Lançado Jul 13, 1992 de Plesetsk Cosmodrome

Loading…

Próximas Passagens (próximas 24 horas)

TLE

AtualizadoSource: Space-Track

Época: Sep 14, 2026, 08:54 UTC

1 22036U 92042C   26257.37091314  .00000007  00000-0 -18361-4 0  9991
2 22036  82.5977 223.9645 0012407 127.8904  25.2199 12.61053929572470

Acompanhe COSMOS 2199 em tempo real com AllMySat

Download on the App Store